ROMMA est une association bénévole à but non lucratif. Votre soutien est indispensable : ADHERER à ROMMA ou FAIRE un DON

Saint-Léger-les-Mélèzes - (05, Hautes-Alpes)

Champsaur (1245 m)   Longitude: 6° 11' 42" E    Latitude: 44° 38' 38" N Station partenaire n°51
 

Détail journalier du     <<     >>

Température Humidité Vent Dir Rafale Dir. rafale Ensol.
Heure (°C) (%) (km/h) (km/h) (min)
01:00 1.9683S8S0
02:00 2.0724S8S0
03:00 1.6705S8S0
04:00 1.3643SSO8SSO0
05:00 1.4664S8S0
06:00 1.7574S8SSO0
07:00 1.4543S8SSO0
08:00 1.5503S8S0
09:00 1.6472S5S0
10:00 4.1412S6S0
11:00 6.2351S5S0
12:00 8.33203S30
13:00 10.1301S5SO60
14:00 10.2261O8SO60
15:00 10.2293ONO15O60
16:00 9.3292ONO18NO50
17:00 8.4352SSO10O0
18:00 6.0382S10S0
19:00 4.6321S15S0
20:00 3.2422S10S0
21:00 3.3413SO10S0
22:00 2.7435S10S0
23:00 2.2454S8S0
minuit 1.7455S10S0

Graphique du 18-02-2019

 

Serveur OMMA